Regional Weather Roundup
Issued by NWS Glasgow, MT

Home | Current Version | Previous Version | Text Only | Print | Product List | Glossary On
Versions: 1 2 3 4 5 6 7 8 9 10 11 12 13 14 15 16 17 18 19 20 21 22 23 24 25 26 27 28 29 30 31 32 33 34 35 36 37 38 39 40 41 42 43 44 45 46 47 48 49 50
000
ASUS45 KGGW 280815
RWRGGW
HOURLY WEATHER ROUNDUP FOR NORTHEAST MONTANA
NATIONAL WEATHER SERVICE GLASGOW MONTANA
200 AM MDT MON JUL 28 2014

NOTE: "FAIR" INDICATES FEW OR NO CLOUDS BELOW 12,000 FEET WITH NO
SIGNIFICANT WEATHER AND/OR OBSTRUCTIONS TO VISISBILITY.

NORTHEAST MONTANA


CITY           SKY/WX    TMP DP  RH WIND       PRES   REMARKS
GLASGOW        CLEAR     60  52  74 E12       30.26S
PLENTYWOOD       N/A     55  51  86 SE2         N/A
WOLF POINT     CLEAR     56  49  77 NE5       30.29S
JORDAN           N/A     54  40  59 CALM      30.28R
WINNETT          N/A     56  40  55 CALM        N/A
SIDNEY         CLEAR     55  48  76 S3        30.32F
GLENDIVE       CLEAR     61  52  72 S5        30.33R
MALTA            N/A     57  49  74 CALM        N/A
SCOBEY           N/A     56  49  77 SE5       30.27S

FORT PECK REPORTS


CITY           SKY/WX    TMP DP  RH WIND       PRES   REMARKS
FORT PECK        N/A     66  53  63 E12         N/A
THE PINES        N/A     64  51  62 S3          N/A

SOUTHEAST MONTANA


CITY           SKY/WX    TMP DP  RH WIND       PRES   REMARKS
BILLINGS       CLEAR     65  40  39 NE8       30.26S
MILES CITY     CLEAR     64  52  64 S7        30.28S
BAKER          CLEAR     53  51  93 E9        30.33F
LIVINGSTON     CLEAR     65  39  38 SE7       30.30R

CENTRAL MONTANA


CITY           SKY/WX    TMP DP  RH WIND       PRES   REMARKS
HAVRE          CLEAR     65  46  50 E12       30.22S
LEWISTOWN      CLEAR     66  42  41 E17       30.29F
GREAT FALLS    CLEAR     63  41  44 E7        30.21S
CUT BANK       CLEAR     57  43  59 CALM      30.26S
HELENA         CLEAR     62  40  44 NW3       30.24R
BUTTE          CLEAR     55  32  41 S6        30.33S
BOZEMAN        CLEAR     57  43  59 N5        30.25S

WESTERN MONTANA


CITY           SKY/WX    TMP DP  RH WIND       PRES   REMARKS
MISSOULA       CLEAR     64  42  44 CALM      30.19R
KALISPELL      NOT AVBL

NORTH DAKOTA


CITY           SKY/WX    TMP DP  RH WIND       PRES   REMARKS
WILLISTON      CLEAR     53  50  89 CALM      30.31S
DICKINSON      CLEAR     49  46  90 S7        30.33R
MINOT          CLEAR     53  50  89 SW8       30.30S
BISMARCK       CLEAR     51  50  96 SW3       30.32S

SOUTHERN SASKATCHEWAN


CITY           SKY/WX    TMP DP  RH WIND       PRES   REMARKS
REGINA         PTCLDY    55  54  94 E7        30.30S
ESTEVAN        MOCLDY    59  55  88 E2        30.31S
SWIFT CURRENT  CLEAR     54  50  87 S8        30.27R




USA.gov is the U.S. government's official web portal to all federal, state and local government web resources and services.